Simultaneous Nadir Overpasses (SNOs) Predictions

Prediction of SNOs between NOAA-20 and LANDSAT-8 Satellite Orbit:

Table of predicted SNOs for the next 14.0 days since TLE Epoch: 7/26/2018
Index Date (NOAA-20) Time (NOAA-20) Lat,Lon (NOAA-20) SZA (NOAA-20 ) Date (LANDSAT-8) Time (LANDSAT-8) Lat,Lon (LANDSAT-8) SZA (LANDSAT-8 ) Distance(km) Time Diff (sec)
1 07/26/2018 22:48:42 -70.12, 13.94 129.16 07/26/2018 22:49:25 -70.09, 13.95 129.19 3.14 43
2 07/26/2018 23:39:26 69.99,-178.56 50.72 07/26/2018 23:38:52 69.99,-178.54 50.73 0.70 34
3 07/29/2018 14:15:07 70.82, -38.73 52.20 07/29/2018 14:16:15 70.70, -36.91 52.00 68.21 68
4 07/29/2018 15:05:36 -70.05, 129.81 128.60 07/29/2018 15:05:55 -70.03, 129.75 128.63 3.05 19
5 07/29/2018 15:56:20 69.93, -62.70 51.28 07/29/2018 15:55:22 69.93, -62.74 51.29 1.76 58
6 08/01/2018 06:31:50 70.13, 78.14 52.13 08/01/2018 06:32:55 70.14, 78.15 52.12 0.92 65
7 08/01/2018 07:22:32 -70.04,-114.41 127.96 08/01/2018 07:22:25 -70.03,-114.37 127.98 2.31 7
8 08/01/2018 08:13:09 69.55, 53.63 51.53 08/01/2018 08:11:58 69.59, 52.67 51.62 37.49 71
9 08/03/2018 22:48:45 70.07,-166.01 52.75 08/03/2018 22:49:26 70.07,-166.06 52.74 2.20 41
10 08/03/2018 23:39:27 -69.98, 1.45 127.34 08/03/2018 23:38:56 -69.96, 1.42 127.35 2.27 31
11 08/06/2018 14:15:10 -70.86, 141.20 125.71 08/06/2018 14:16:18 -70.76, 143.20 125.89 73.81 68
12 08/06/2018 15:05:41 70.07, -50.23 53.47 08/06/2018 15:05:56 70.05, -50.20 53.45 1.71 15
13 08/06/2018 15:56:23 -69.97, 117.23 126.63 08/06/2018 15:55:26 -69.95, 117.28 126.64 3.08 57
14 08/09/2018 06:31:51 -70.12,-101.85 125.74 08/09/2018 06:32:58 -70.15,-101.83 125.72 3.49 67
15 08/09/2018 07:22:35 70.01, 65.62 54.16 08/09/2018 07:22:25 70.04, 65.65 54.19 3.12 10
16 08/09/2018 08:13:12 -69.65,-126.52 126.21 08/09/2018 08:12:00 -69.66,-127.24 126.16 27.83 72




NCC Satellite Simultaneous Nadir Overpasses (SNOs) Prediction Service
